User: anonymous   Login
Location: Unspecified
(0.0000°N, 0.0000°E)
Time: 21:02:58
(UTC+01:00)
Language:

Cosmos 1515 Rocket - Orbit

View from above orbital plane
View from above orbital plane
View from above satellite
View from above satellite

Ground track
Ground track

The orbit data is extracted from the following two-line orbital elements,

1 14552U 83122B   15064.21159522  .00000563  00000-0  66019-4 0  9996
2 14552 082.5259 138.1725 0018144 036.5425 323.7023 14.83103166685406
Epoch (UTC): 05 March 2015 05:04:41
Eccentricity: 0.0018144
inclination: 82.5259°
perigee height: 607 km
apogee height: 632 km
right ascension of ascending node: 138.1725°
argument of perigee: 36.5425°
revolutions per day: 14.83103166
mean anomaly at epoch: 323.7023°
orbit number at epoch: 68540

The dashed part of the orbit path shows where the satellite is in the earth's shadow,  

DLR